Back to catalog

SATCOM C3

AliveMilitaryGEO
NORAD 22117·PAYLOAD·🇺🇸 United States

Launched Sep 10, 1992 from Guiana Space Centre

Loading…

TLE

FreshSource: Space-Track

Epoch: Sep 14, 2026, 01:47 UTC

1 22117U 92060B   26257.07461675 -.00000164  00000-0  00000-0 0  9990
2 22117  14.0827  19.4253 0022176  23.4959 329.0480  0.97012707122623

Track SATCOM C3 in real time with AllMySat

Download on the App Store